Location: ??????
(55.6361°N, 38.0803°E)
Time: 01:21:40
(UTC+00:00)

Okean 1 - Pass Details

Date: 30 March 2020
Orbit: 540 x 554 km, 82.5° (Epoch: 27 May)

Event Time Altitude Azimuth Distance (km) Brightness Sun altitude
Exits shadow 01:13:32 - 173° (S) 2,364 6.3 -15.3°
Reaches altitude 10° 01:14:55 10° 169° (S) 1,807 5.7 -15.2°
Maximum altitude 01:18:45 48° 95° (E) 721 4.3 -14.7°
Drops below altitude 10° 01:22:35 10° 21° (NNE) 1,818 6.7 -14.2°
Sets 01:24:48 0° 16° (NNE) 2,715 7.6 -13.9°
